Flag for Germany Weather past 2 weeks in Wesseling, North Rhine-Westphalia, Germany

Now
45 °F

Overcast.


Feels Like: 41 °F
Forecast: 38 / 47 °F
Wind: 7 mph from South

Location: Koeln / Bonn

Current Time: Mar 1, 2015 at 10:36:13 AM

Latest Report: Mar 1, 2015 at 10:00 AM


Visibility: 38 mi

Pressure: 29.67 "Hg

Humidity: 83%

Dew point: 40 °F

Location of WesselingLocation

Historic Weather in Wesseling — Graph

°F

Wesseling temperature yesterday

Maximum temperature yesterday: 47 °F (at 4:00 PM)
Minimum temperature yesterday: 28 °F (at 6:00 AM)
Average temperature yesterday: 38 °F

Past Weeks' High & Low Weather Summary

 TemperatureHumidityPressure
High51 °F (Feb 15, 3:00 PM)100% (Feb 17, 9:00 AM)30.78 "Hg (Feb 17, 9:00 AM)
Low28 °F (Feb 28, 6:00 AM)39% (Feb 15, 3:00 PM)29.38 "Hg (Feb 21, 5:00 AM)
Average39 °F81%30.00 "Hg
* Reported Feb 14 9:00 AM — Mar 1 9:00 AM, Wesseling, Weather by CustomWeather, © 2015

Note: Actual official high and low records may vary slightly from our data, if they occured in-between our weather recording intervals... More about our weather records

Advertising

Wesseling weather history for previous 24 hours

 ConditionsComfort  
Time TempWeatherWind HumidityBarometerVisibility
9:00 AM
Sun, Mar 1
44 °FOvercast.5 mph84%29.65 "Hg37 mi
8:00 AM41 °FOvercast.3 mph88%29.65 "Hg37 mi
7:00 AM40 °FOvercast.5 mph92%29.66 "Hg31 mi
6:00 AM39 °FLight rain. Low clouds.5 mph97%29.66 "Hg7 mi
5:00 AM39 °FLight rain. Overcast.5 mph94%29.67 "Hg9 mi
4:00 AM38 °FLight rain. Overcast.5 mph94%29.70 "Hg7 mi
3:00 AM40 °FLight rain. Overcast.6 mph74%29.72 "Hg31 mi
2:00 AM42 °FOvercast.3 mph60%29.78 "Hg31 mi
1:00 AM42 °FOvercast.6 mph55%29.80 "Hg31 mi
12:00 AM41 °FOvercast.6 mph58%29.83 "Hg31 mi
11:00 PM
Sat, Feb 28
41 °FOvercast.7 mph58%29.87 "Hg31 mi
10:00 PM40 °FOvercast.5 mph62%29.92 "Hg31 mi
9:00 PM41 °FPassing clouds.5 mph57%29.96 "Hg31 mi
8:00 PM38 °FPassing clouds.6 mph64%29.97 "Hg31 mi
7:00 PM39 °FPassing clouds.3 mph63%29.99 "Hg28 mi
6:00 PM43 °FScattered clouds.6 mph53%29.99 "Hg28 mi
5:00 PM46 °FScattered clouds.7 mph43%30.00 "Hg28 mi
4:00 PM47 °FPartly sunny.7 mph42%30.03 "Hg28 mi
3:00 PM47 °FPartly sunny.5 mph46%30.06 "Hg28 mi
2:00 PM47 °FPartly sunny.7 mph48%30.09 "Hg25 mi
1:00 PM45 °FPartly sunny.6 mph57%30.11 "Hg25 mi
12:00 PM43 °FPartly sunny.6 mph60%30.13 "Hg22 mi
11:00 AM41 °FScattered clouds.5 mph70%30.16 "Hg19 mi
10:00 AM37 °FScattered clouds.3 mph81%30.18 "Hg9 mi
Weather by CustomWeather, © 2015

See weather overviewHow to use our weather pages